TimeCST,TemperatureF,Dew PointF,Humidity,Sea Level PressureIn,VisibilityMPH,Wind Direction,Wind SpeedMPH,Gust SpeedMPH,PrecipitationIn,Events,Conditions,WindDirDegrees,DateUTC
12:00 AM,69,65,82,29.87,12,NW,2.3,,,,Scattered Clouds,310,2013-04-20 06:00:00
12:00 AM,69.8,64.4,83,30.05,6.2,NW,2.3,-,N/A,,Mostly Cloudy,310,2013-04-20 06:00:00
1:00 AM,68.0,64.4,88,30.02,6.2,East,2.3,-,N/A,,Mostly Cloudy,100,2013-04-20 07:00:00
2:00 AM,68.0,64.4,88,30.00,-9999.0,NNE,2.3,-,N/A,,Clear,30,2013-04-20 08:00:00
3:00 AM,68,62,74,29.86,12,NE,4.6,,,,Mostly Cloudy,40,2013-04-20 09:00:00
3:00 AM,68.0,62.6,83,29.98,-9999.0,NE,4.6,-,N/A,,Clear,40,2013-04-20 09:00:00
4:00 AM,68.0,60.8,78,29.99,-9999.0,ENE,4.6,-,N/A,,Clear,60,2013-04-20 10:00:00
5:00 AM,68.0,60.8,78,30.01,-9999.0,ENE,3.5,-,N/A,,Clear,70,2013-04-20 11:00:00
6:00 AM,67,60,73,29.92,12,ENE,6.9,,,,Clear,60,2013-04-20 12:00:00
6:00 AM,68.0,60.8,78,30.03,-9999.0,ENE,6.9,-,N/A,,Clear,60,2013-04-20 12:00:00
7:00 AM,69.8,62.6,78,30.04,-9999.0,NNE,3.5,-,N/A,,Clear,20,2013-04-20 13:00:00
8:00 AM,77.0,60.8,57,30.05,-9999.0,ENE,3.5,-,N/A,,Clear,60,2013-04-20 14:00:00
9:00 AM,79,62,46,29.88,12,ESE,8.1,,,,Clear,110,2013-04-20 15:00:00
9:00 AM,78.8,62.6,57,30.05,-9999.0,ESE,8.1,-,N/A,,Clear,110,2013-04-20 15:00:00
10:00 AM,80.6,60.8,51,30.06,6.2,ESE,9.2,-,N/A,,Mostly Cloudy,120,2013-04-20 16:00:00
11:00 AM,82.4,60.8,48,30.05,6.2,SE,8.1,-,N/A,,Mostly Cloudy,130,2013-04-20 17:00:00
12:00 PM,80,61,42,29.86,12,NNE,4.6,,,,Partly Cloudy,30,2013-04-20 18:00:00
12:00 PM,80.6,60.8,51,30.03,6.2,NNE,4.6,-,N/A,,Scattered Clouds,30,2013-04-20 18:00:00
1:00 PM,78.8,57.2,47,30.00,6.2,East,10.4,-,N/A,,Scattered Clouds,100,2013-04-20 19:00:00
2:00 PM,82.4,57.2,42,29.97,6.2,ESE,8.1,-,N/A,,Scattered Clouds,120,2013-04-20 20:00:00
3:00 PM,80,60,41,29.79,11,ESE,3.5,,,,Overcast,110,2013-04-20 21:00:00
3:00 PM,80.6,60.8,51,29.97,6.2,ESE,3.5,-,N/A,,Mostly Cloudy,110,2013-04-20 21:00:00
3:14 PM,75.2,68.0,78,29.97,6.2,SW,8.1,-,N/A,,Mostly Cloudy,230,2013-04-20 21:14:00
4:00 PM,75.2,68.0,78,29.97,6.2,WSW,8.1,-,N/A,,Mostly Cloudy,240,2013-04-20 22:00:00
5:00 PM,77.0,64.4,65,29.99,6.2,ESE,10.4,-,N/A,,Mostly Cloudy,120,2013-04-20 23:00:00
6:00 PM,74,62,57,29.85,12,South,2.3,,,,Overcast,170,2013-04-21 00:00:00
6:00 PM,73.4,62.6,69,30.01,-9999.0,South,2.3,-,N/A,,Clear,170,2013-04-21 00:00:00
7:00 PM,71.6,66.2,83,30.04,-9999.0,SW,5.8,-,N/A,,Clear,220,2013-04-21 01:00:00
8:00 PM,69.8,68.0,94,30.07,6.2,West,3.5,-,N/A,,Mostly Cloudy,280,2013-04-21 02:00:00
9:00 PM,71,67,84,29.91,6,North,2.3,,,,Scattered Clouds,0,2013-04-21 03:00:00
9:00 PM,69.8,68.0,94,30.08,6.2,North,2.3,-,N/A,,Scattered Clouds,360,2013-04-21 03:00:00
10:00 PM,69.8,66.2,88,30.10,6.2,Calm,Calm,-,N/A,,Scattered Clouds,0,2013-04-21 04:00:00
11:00 PM,69.8,62.6,78,30.10,-9999.0,North,-9999.0,-,N/A,,Scattered Clouds,0,2013-04-21 05:00:00